Home > Time Zones > World Clock > Weather > Ghana > Accra > Past weeks

Flag for Ghana Weather past 2 weeks in Accra, Ghana

Now
75 °F

Mostly cloudy.


Feels Like: 74 °F
Forecast: N/A
Wind: 9 mph from South

Location: Accra Airport

Current Time: Aug 1, 2014 at 10:54:49 PM

Latest Report: Aug 1, 2014 at 10:00 PM


Visibility: N/A

Pressure: 30.01 "Hg

Humidity: 94%

Dew point: 73 °F

Location of AccraLocation

Historic Weather in Accra — Graph

°F

Accra temperature yesterday

Maximum temperature yesterday: 81 °F (at 11:00 AM)
Minimum temperature yesterday: 75 °F (at 12:55 AM)
Average temperature yesterday: 77 °F

Past Weeks' High & Low Weather Summary

 TemperatureHumidityPressure
High82 °F (Jul 19, 12:51 PM)100% (Jul 24, 10:00 PM)30.07 "Hg (Jul 24, 10:00 PM)
Low73 °F (Jul 24, 10:00 PM)70% (Jul 26, 11:00 AM)29.89 "Hg (Jul 26, 4:00 PM)
Average77 °F88%29.98 "Hg
* Reported Jul 17 7:00 PM — Aug 1 7:54 PM, Accra, Weather by CustomWeather, © 2014

Note: Actual official high and low records may vary slightly from our data, if they occured in-between our weather recording intervals... More about our weather records

Advertising

Accra weather history for previous 24 hours

 ConditionsComfort  
Time TempWeatherWind HumidityBarometerVisibility
7:54 PM
Aug 1
75 °FMostly cloudy.13 mph94%29.98 "HgN/A
6:56 PM75 °FOvercast.10 mph94%29.95 "HgN/A
5:51 PM77 °FPartly sunny.10 mph89%29.95 "HgN/A
4:53 PM77 °FSunny.15 mph89%29.92 "Hg10 mi
3:53 PM81 °FPassing clouds.12 mph79%29.92 "HgN/A
2:54 PM81 °FScattered clouds.15 mph74%29.92 "HgN/A
1:55 PM81 °FScattered clouds.17 mph74%29.95 "HgN/A
12:54 PM79 °FOvercast.15 mph84%29.98 "HgN/A
11:56 AM79 °FMostly cloudy.16 mph84%30.01 "HgN/A
10:55 AM77 °FPartly sunny.13 mph89%30.01 "HgN/A
10:00 AM77 °FCloudy.14 mph89%30.04 "HgN/A
8:53 AM77 °FMostly cloudy.9 mph89%30.04 "HgN/A
8:00 AM75 °FMostly cloudy.9 mph94%30.04 "HgN/A
6:54 AM75 °FMostly cloudy.8 mph94%30.01 "HgN/A
5:53 AM75 °FMostly cloudy.10 mph94%29.95 "HgN/A
4:54 AM75 °FMostly cloudy.8 mph94%29.98 "HgN/A
4:00 AM75 °FMostly cloudy.9 mph94%29.98 "HgN/A
2:52 AM75 °FOvercast.9 mph94%29.98 "HgN/A
12:00 AM75 °FMostly cloudy.13 mph94%30.01 "HgN/A
Weather by CustomWeather, © 2014

See weather overviewHow to use our weather pages